This demonstration page uses our WeatherBlox Daily Observations layout. Learn more.

Left ArrowRight Arrow

Hourly Observations for September 20, 2020

Temp ( °F °C ) Dew Point ( °F °C ) Humidity (%) Winds ( mph kmh ) Pressure ( in mb ) Visibility ( mi km ) Precip ( " mm )
12:53 am 00:53 Clear 67 19.4 53 11.7 61 61 ESE 10 17 30.05 1018 10 16 0.00 0.00
1:53 am 01:53 Clear 67 19.4 54 12.2 63 63 ESE 9 15 30.03 1017 9 14 0.00 0.00
2:53 am 02:53 Clear 65 18.3 54 12.2 68 68 ESE 7 11 30.03 1017 8 13 0.00 0.00
3:53 am 03:53 Clear 63 17.2 54 12.2 73 73 ESE 6 9 30.04 1017 8 13 0.00 0.00
4:53 am 04:53 Clear 63 17.2 53 11.7 70 70 ESE 7 11 30.03 1017 8 13 0.00 0.00
5:53 am 05:53 Clear 60 15.6 53 11.7 78 78 E 5 7 30.05 1018 7 11 0.00 0.00
6:53 am 06:53 Clear 58 14.4 53 11.7 84 84 E 6 9 30.06 1018 7 11 0.00 0.00
7:53 am 07:53 Sunny 58 14.4 53 11.7 84 84 E 5 7 30.07 1018 7 11 0.00 0.00
8:53 am 08:53 Hazy 62 16.7 54 12.2 75 75 ESE 8 13 30.08 1019 6 10 0.00 0.00
9:53 am 09:53 Sunny 66 18.9 54 12.2 65 65 SE 15 24 30.09 1019 7 11 0.00 0.00
10:53 am 10:53 Sunny 70 21.1 55 12.8 59 59 SSE 14 22 30.09 1019 8 13 0.00 0.00
11:53 am 11:53 Sunny 74 23.3 55 12.8 52 52 SSE 12 19 30.09 1019 8 13 0.00 0.00
12:53 pm 12:53 Sunny 77 25 55 12.8 47 47 SE 9 15 30.07 1018 9 14 0.00 0.00
1:53 pm 13:53 Sunny 79 26.1 53 11.7 41 41 E 10 17 30.04 1017 9 14 0.00 0.00
2:53 pm 14:53 Sunny 80 26.7 51 10.6 37 37 SSE 10 17 30.02 1017 8 13 0.00 0.00
3:53 pm 15:53 Sunny 82 27.8 52 11.1 35 35 SE 9 15 29.99 1016 7 11 0.00 0.00
4:53 pm 16:53 Sunny 82 27.8 51 10.6 34 34 SE 9 15 29.98 1015 7 11 0.00 0.00
5:53 pm 17:53 Sunny 83 28.3 47 8.3 28 28 SE 8 13 29.97 1015 7 11 0.00 0.00
6:53 pm 18:53 Sunny 83 28.3 48 8.9 30 30 SE 9 15 29.98 1015 8 13 0.00 0.00
7:53 pm 19:53 Clear 79 26.1 47 8.3 32 32 ESE 8 13 29.98 1015 8 13 0.00 0.00
8:53 pm 20:53 Clear 75 23.9 47 8.3 37 37 SE 8 13 29.99 1016 8 13 0.00 0.00
9:53 pm 21:53 Clear 70 21.1 48 8.9 46 46 ESE 7 11 30.02 1017 7 11 0.00 0.00
10:53 pm 22:53 Clear 68 20 47 8.3 47 47 E 6 9 30.02 1017 7 11 0.00 0.00
11:53 pm 23:53 Clear 65 18.3 46 7.8 51 51 E 8 13 30.03 1017 7 11 0.00 0.00

Powered by AerisWeather